Tracking 21473 objects as of 27-Sep-2020
HD Live streaming from Space Station
objects crossing your sky now

ANDESITE

Track ANDESITE now!
10-day predictions


NORAD ID: 45726
Int'l Code: 2020-037D
Perigee: 589.4 km
Apogee: 608.2 km
Inclination: 97.7 °
Period: 96.5 minutes
Semi major axis: 6969 km
RCS: Unknown
Launch date: June 13, 2020
Source: United States (US)
Launch site: Rocket Lab Launch Complex (RLLC)
aabbcc
Your satellite tracking list
Your tracking list is empty




NASA's NSSDC Master Catalog

Two Line Element Set (TLE):
1 45726U 20037D   20271.47799970  .00000119  00000-0  17223-4 0  9990
2 45726  97.7098  89.4614 0013452 310.1486  49.8559 14.92008241 13236
Source of the keplerian elements: AFSPC